Location: Karcze
(52.0945°N, 22.4786°E)
Time: 00:27:45
(UTC+00:00)

A-11 Canister half - Pass Details

Date: 06 August 2021
Orbit: 1514 x 1685 km, 47.2° (Epoch: 16 September)

Event Time Altitude Azimuth Distance (km) Brightness Sun altitude
Rises 12:55:29 0° 200° (SSW) 4,726 12.2 45.1°
Reaches altitude 10° 12:59:06 10° 189° (S) 3,771 11.7 44.6°
Maximum altitude 13:06:41 27° 136° (SE) 2,707 10.5 43.7°
Drops below altitude 10° 13:14:28 10° 84° (E) 3,891 10.8 42.7°
Sets 13:18:14 0° 73° (ENE) 4,903 11.2 42.2°
